Location: College Park
(38.9810°N, 76.9370°W)
Time: 03:06:09
(UTC-04:00)

Vanguard 3 - All Passes

Search period start: 23 May 2018 00:00
Search period end: 02 June 2018 00:00
Orbit: 508 x 3264 km, 33.4° (Epoch: 21 May)

Date Brightness Start Highest point End Pass type
(mag) Time Alt. Az. Time Alt. Az. Time Alt. Az.
23 May - 08:35:32 10° S 08:47:16 20° SE 08:59:27 10° E daylight
23 May - 10:43:39 10° SW 11:01:39 47° SSE 11:17:53 10° E daylight
23 May - 12:57:49 10° WSW 13:17:36 68° S 13:31:46 10° E daylight
23 May - 15:15:08 10° W 15:33:03 68° SSW 15:43:48 10° ESE daylight
23 May - 17:33:24 10° W 17:46:04 38° SW 17:53:42 10° SSE daylight
24 May - 09:29:48 10° SSW 09:45:33 35° SE 10:01:34 10° E daylight
24 May - 11:41:36 10° SW 12:00:59 61° SSE 12:17:02 10° E daylight
24 May - 13:57:37 10° W 14:17:08 72° S 14:30:05 10° E daylight
24 May - 16:15:34 10° W 16:31:41 55° SSW 16:41:15 10° SE daylight
24 May - 18:34:52 10° W 18:43:09 21° SW 18:49:02 10° S daylight
25 May - 08:17:41 10° S 08:30:01 23° SE 08:43:31 10° E daylight
25 May - 10:26:28 10° SW 10:44:23 51° SSE 11:01:35 10° E daylight
25 May - 12:40:39 10° WSW 13:00:38 71° S 13:15:45 10° E daylight
25 May - 14:57:50 10° W 15:16:25 67° SSW 15:28:01 10° ESE daylight
25 May - 17:16:16 10° W 17:29:33 37° SW 17:37:51 10° SSE daylight
26 May - 07:09:42 10° SE 07:15:10 12° SE 07:20:59 10° ESE daylight
26 May - 09:12:34 10° SSW 09:28:14 39° SE 09:45:09 10° E daylight
26 May - 11:24:33 10° WSW 11:43:49 64° SSE 12:00:48 10° E daylight
26 May - 13:40:26 10° W 14:00:18 72° S 14:14:09 10° ESE daylight
26 May - 15:58:17 10° W 16:15:05 53° SSW 16:25:25 10° SE daylight
26 May - 18:18:09 10° W 18:26:37 19° SW 18:32:48 10° S daylight
27 May - 08:00:14 10° S 08:12:46 26° SE 08:27:13 10° E daylight
27 May - 10:09:30 10° SW 10:27:06 55° SSE 10:45:08 10° E daylight
27 May - 12:23:38 10° WSW 12:43:35 72° S 12:59:38 10° E daylight
27 May - 14:40:35 10° W 14:59:39 65° SSW 15:12:09 10° ESE daylight
27 May - 16:59:07 10° W 17:12:55 35° SW 17:21:51 10° SSE daylight
28 May - 06:50:52 10° SSE 06:58:02 14° SE 07:06:05 10° ESE daylight
28 May - 08:55:37 10° SSW 09:10:55 42° SE 09:28:33 10° E daylight
28 May - 11:07:41 10° WSW 11:26:36 67° SSE 11:44:27 10° E daylight
28 May - 13:23:20 10° W 13:43:22 72° S 13:58:08 10° ESE daylight
28 May - 15:41:00 10° W 15:58:20 50° SSW 16:09:28 10° SE daylight
28 May - 18:01:30 10° W 18:09:58 18° SW 18:16:22 10° SSW daylight
29 May - 07:43:07 10° S 07:55:30 29° SE 08:10:39 10° E daylight
29 May - 09:52:44 10° SW 10:09:49 58° SSE 10:28:32 10° E daylight
29 May - 12:06:44 10° WSW 12:26:28 73° S 12:43:25 10° E daylight
29 May - 14:23:24 10° W 14:42:45 63° SSW 14:56:09 10° ESE daylight
29 May - 16:42:00 10° W 16:56:09 33° SW 17:05:42 10° SSE daylight
30 May - 06:32:57 10° SSE 06:40:55 16° SE 06:50:18 10° E daylight
30 May - 08:38:52 10° SSW 08:53:38 45° SE 09:11:46 10° E daylight
30 May - 10:50:58 10° WSW 11:09:23 69° SSE 11:27:59 10° E daylight
30 May - 13:06:21 10° W 13:26:20 71° S 13:42:00 10° ESE daylight
30 May - 15:23:48 10° W 15:41:27 48° SSW 15:53:22 10° SE daylight
30 May - 17:44:59 10° W 17:53:11 17° SW 17:59:39 10° SSW daylight
31 May - 07:26:17 10° SSW 07:38:18 32° SE 07:53:53 10° E daylight
31 May - 09:36:09 10° SW 09:52:33 61° SSE 10:11:49 10° E daylight
31 May - 11:49:58 10° W 12:09:19 74° S 12:27:05 10° E daylight
31 May - 14:06:18 10° W 14:25:45 61° SSW 14:40:00 10° SE daylight
31 May - 16:24:55 10° W 16:39:15 31° SW 16:49:23 10° SSE daylight
01 Jun - 06:15:38 10° SSE 06:23:51 18° SE 06:34:03 10° E daylight
01 Jun - 08:22:20 10° SW 08:36:24 48° SSE 08:54:51 10° E daylight
01 Jun - 10:34:24 10° WSW 10:52:10 71° S 11:11:23 10° E daylight
01 Jun - 12:49:28 10° W 13:09:12 70° SSW 13:25:44 10° ESE daylight
01 Jun - 15:06:39 10° W 15:24:25 45° SW 15:37:08 10° SSE daylight
01 Jun - 17:28:40 10° W 17:36:18 15° SW 17:42:36 10° SSW daylight
